カタログに戻る

FIREFLY-3

運用中科学SSO
NORAD 62710·PAYLOAD·🇮🇳 India

打ち上げ Jan 14, 2025 から Vandenberg Space Force Base

Loading…

次のパス (今後24時間)

TLE

最新Source: Space-Track

元期: Sep 14, 2026, 12:54 UTC

1 62710U 25009DF  26257.53780938  .00000598  00000-0  63334-4 0  9992
2 62710  97.6996 333.8047 0002185 206.5180 153.5928 14.92730921 90662

AllMySatでFIREFLY-3をリアルタイム追跡

Download on the App Store